^^
Station Historical Data
Daily Summary for March 7, 2012 Units:  Metric    English   Both
« Previous Day
Next Day »
Daily Weekly Monthly Yearly Custom
  High: Low: Average:
Temperature: 19.8 °C 11.8 °C 15.7 °C
Dew Point: 12.8 °C 2.6 °C 8.2 °C
Humidity: 81% 51% 61%
Wind Speed: 32.2km/h 4.8km/h 15.9km/h
Wind Gust: 56.3km/h - -
Wind- - SSW
Pressure: 1016.5 hPa 1009.4 hPa -
Precipitation: 0 mm    
Historical Graphs
 
 
Tabular Data for March 7, 2012
Time Temperature Dew Point Pressure Wind Wind Speed Wind Gust Humidity Rainfall Rate (Hourly)
00:09 13.3 °C 4.9 °C 1016.1 hPa South 11.3 km/h 37 km/h 57% 0 mm
00:19 13.2 °C 4.8 °C 1016.1 hPa SSW 9.7 km/h 24.1 km/h 57% 0 mm
00:29 13.1 °C 4.7 °C 1016.1 hPa South 8 km/h 24.1 km/h 57% 0 mm
00:39 12.9 °C 4.6 °C 1016.1 hPa South 9.7 km/h 24.1 km/h 57% 0 mm
00:49 12.9 °C 4.6 °C 1016.5 hPa South 4.8 km/h 20.9 km/h 57% 0 mm
00:59 12.8 °C 4.4 °C 1016.5 hPa South 4.8 km/h 32.2 km/h 57% 0 mm
01:09 12.6 °C 4.3 °C 1016.5 hPa South 11.3 km/h 22.5 km/h 57% 0 mm
01:19 12.6 °C 4.3 °C 1016.5 hPa SSW 9.7 km/h 25.7 km/h 57% 0 mm
01:29 12.4 °C 4.2 °C 1016.5 hPa SSW 11.3 km/h 24.1 km/h 57% 0 mm
01:39 12.2 °C 3.9 °C 1016.5 hPa South 4.8 km/h 22.5 km/h 57% 0 mm
01:49 12 °C 3.8 °C 1016.5 hPa South 4.8 km/h 17.7 km/h 57% 0 mm
01:59 11.9 °C 3.7 °C 1016.5 hPa South 9.7 km/h 24.1 km/h 57% 0 mm
02:09 11.9 °C 3.7 °C 1016.1 hPa South 9.7 km/h 20.9 km/h 57% 0 mm
02:19 11.9 °C 3.4 °C 1016.1 hPa South 4.8 km/h 22.5 km/h 56% 0 mm
02:29 12.1 °C 3.3 °C 1016.1 hPa South 4.8 km/h 25.7 km/h 55% 0 mm
02:39 12.2 °C 3.4 °C 1016.1 hPa South 11.3 km/h 22.5 km/h 55% 0 mm
02:49 12.3 °C 3.2 °C 1016.1 hPa South 8 km/h 22.5 km/h 54% 0 mm
02:59 12.4 °C 3.3 °C 1016.1 hPa SSW 4.8 km/h 19.3 km/h 54% 0 mm
03:09 12.5 °C 3.4 °C 1016.1 hPa South 11.3 km/h 20.9 km/h 54% 0 mm
03:19 12.6 °C 3.2 °C 1016.1 hPa South 9.7 km/h 29 km/h 53% 0 mm
03:29 12.7 °C 3.1 °C 1016.1 hPa SSW 11.3 km/h 32.2 km/h 52% 0 mm
03:39 12.8 °C 3.2 °C 1016.1 hPa South 12.9 km/h 27.4 km/h 52% 0 mm
03:49 12.8 °C 3.2 °C 1016.1 hPa South 9.7 km/h 33.8 km/h 52% 0 mm
03:59 12.7 °C 3.1 °C 1016.1 hPa South 11.3 km/h 32.2 km/h 52% 0 mm
04:09 12.7 °C 3.1 °C 1016.1 hPa South 11.3 km/h 29 km/h 52% 0 mm
04:19 12.6 °C 2.7 °C 1016.1 hPa South 8 km/h 20.9 km/h 51% 0 mm
04:29 12.6 °C 2.7 °C 1016.1 hPa South 12.9 km/h 29 km/h 51% 0 mm
04:39 12.5 °C 2.6 °C 1016.1 hPa SSW 8 km/h 29 km/h 51% 0 mm
04:49 12.4 °C 2.6 °C 1016.1 hPa South 12.9 km/h 25.7 km/h 51% 0 mm
04:59 12.5 °C 2.6 °C 1016.1 hPa South 8 km/h 32.2 km/h 51% 0 mm
05:09 12.6 °C 2.7 °C 1016.1 hPa South 11.3 km/h 35.4 km/h 51% 0 mm
05:19 12.7 °C 2.8 °C 1016.1 hPa South 11.3 km/h 22.5 km/h 51% 0 mm
05:29 12.7 °C 2.8 °C 1016.1 hPa South 14.5 km/h 32.2 km/h 51% 0 mm
05:39 12.7 °C 3.1 °C 1016.1 hPa South 11.3 km/h 29 km/h 52% 0 mm
05:49 12.7 °C 3.1 °C 1016.1 hPa South 12.9 km/h 38.6 km/h 52% 0 mm
05:59 12.7 °C 3.1 °C 1016.1 hPa South 11.3 km/h 35.4 km/h 52% 0 mm
06:09 12.6 °C 3.2 °C 1016.1 hPa South 12.9 km/h 27.4 km/h 53% 0 mm
06:19 12.3 °C 3.1 °C 1016.1 hPa South 16.1 km/h 37 km/h 53% 0 mm
06:29 12.3 °C 3.3 °C 1016.1 hPa South 11.3 km/h 24.1 km/h 54% 0 mm
06:39 12.1 °C 3.1 °C 1016.1 hPa South 12.9 km/h 40.2 km/h 54% 0 mm
06:49 11.8 °C 3.1 °C 1016.1 hPa South 14.5 km/h 40.2 km/h 55% 0 mm
06:59 11.8 °C 3.3 °C 1016.1 hPa South 12.9 km/h 35.4 km/h 56% 0 mm
07:09 11.8 °C 3.3 °C 1016.1 hPa South 11.3 km/h 25.7 km/h 56% 0 mm
07:19 11.9 °C 3.4 °C 1015.8 hPa South 11.3 km/h 27.4 km/h 56% 0 mm
07:29 11.9 °C 3.4 °C 1015.8 hPa South 12.9 km/h 29 km/h 56% 0 mm
07:39 12.1 °C 3.6 °C 1015.8 hPa South 14.5 km/h 25.7 km/h 56% 0 mm
07:49 12.2 °C 3.9 °C 1015.8 hPa South 19.3 km/h 41.8 km/h 57% 0 mm
07:59 12.3 °C 4.1 °C 1015.8 hPa South 11.3 km/h 32.2 km/h 57% 0 mm
08:09 12.5 °C 4.2 °C 1015.8 hPa South 16.1 km/h 38.6 km/h 57% 0 mm
08:19 12.7 °C 4.6 °C 1015.8 hPa South 9.7 km/h 32.2 km/h 58% 0 mm
08:29 12.9 °C 4.8 °C 1015.8 hPa South 16.1 km/h 29 km/h 58% 0 mm
08:39 13.4 °C 5.3 °C 1015.5 hPa South 12.9 km/h 32.2 km/h 58% 0 mm
08:49 13.6 °C 5.4 °C 1015.1 hPa South 12.9 km/h 33.8 km/h 58% 0 mm
08:59 13.9 °C 5.8 °C 1015.1 hPa SSW 16.1 km/h 33.8 km/h 58% 0 mm
09:09 14.3 °C 6.4 °C 1015.5 hPa South 20.9 km/h 37 km/h 59% 0 mm
09:19 14.7 °C 6.7 °C 1015.5 hPa South 19.3 km/h 35.4 km/h 59% 0 mm
09:29 14.7 °C 6.8 °C 1015.1 hPa South 19.3 km/h 35.4 km/h 59% 0 mm
09:39 15 °C 7.1 °C 1015.1 hPa SSW 12.9 km/h 35.4 km/h 59% 0 mm
09:49 15.2 °C 7.4 °C 1015.1 hPa SSW 14.5 km/h 35.4 km/h 60% 0 mm
09:59 15.5 °C 7.8 °C 1015.1 hPa SSW 16.1 km/h 38.6 km/h 60% 0 mm
10:09 15.6 °C 7.9 °C 1014.8 hPa SSW 12.9 km/h 33.8 km/h 60% 0 mm
10:19 15.9 °C 8.2 °C 1014.8 hPa SSW 19.3 km/h 40.2 km/h 60% 0 mm
10:29 16.2 °C 8.4 °C 1014.4 hPa South 19.3 km/h 38.6 km/h 60% 0 mm
10:39 16.6 °C 8.8 °C 1014.4 hPa SSW 16.1 km/h 32.2 km/h 60% 0 mm
10:49 17.1 °C 9.2 °C 1014.4 hPa SSW 14.5 km/h 33.8 km/h 60% 0 mm
10:59 17.3 °C 9.5 °C 1014.4 hPa SSW 12.9 km/h 35.4 km/h 60% 0 mm
11:09 17.7 °C 10.1 °C 1014.4 hPa SSW 14.5 km/h 41.8 km/h 61% 0 mm
11:19 18.4 °C 10.5 °C 1014.1 hPa SSW 25.7 km/h 41.8 km/h 60% 0 mm
11:29 18.3 °C 10.4 °C 1014.1 hPa SSW 20.9 km/h 43.5 km/h 60% 0 mm
11:39 18.2 °C 10.5 °C 1013.8 hPa SSW 22.5 km/h 45.1 km/h 61% 0 mm
11:49 18.2 °C 10.5 °C 1013.4 hPa SSW 19.3 km/h 41.8 km/h 61% 0 mm
11:59 18.1 °C 10.7 °C 1013.4 hPa SSW 25.7 km/h 43.5 km/h 62% 0 mm
12:09 18.2 °C 10.8 °C 1013.4 hPa SW 25.7 km/h 49.9 km/h 62% 0 mm
12:19 18.3 °C 10.9 °C 1013.1 hPa SSW 14.5 km/h 41.8 km/h 62% 0 mm
12:29 18.3 °C 10.9 °C 1013.1 hPa SSW 32.2 km/h 56.3 km/h 62% 0 mm
12:39 18.3 °C 10.9 °C 1012.8 hPa SW 24.1 km/h 43.5 km/h 62% 0 mm
12:49 18.3 °C 11.1 °C 1012.8 hPa SW 19.3 km/h 40.2 km/h 63% 0 mm
12:59 18.6 °C 11.1 °C 1012.4 hPa SSW 20.9 km/h 41.8 km/h 62% 0 mm
13:09 19 °C 11.3 °C 1012.1 hPa SSW 20.9 km/h 37 km/h 61% 0 mm
13:19 19.3 °C 11.3 °C 1012.1 hPa SW 32.2 km/h 53.1 km/h 60% 0 mm
13:29 19.5 °C 11.5 °C 1012.1 hPa SSW 20.9 km/h 49.9 km/h 60% 0 mm
13:39 19.4 °C 11.7 °C 1012.1 hPa SSW 19.3 km/h 56.3 km/h 61% 0 mm
13:49 19.4 °C 11.4 °C 1012.1 hPa SSW 29 km/h 53.1 km/h 60% 0 mm
13:59 19.6 °C 11.6 °C 1012.1 hPa SSW 20.9 km/h 35.4 km/h 60% 0 mm
14:09 19.8 °C 11.8 °C 1011.7 hPa SSW 14.5 km/h 40.2 km/h 60% 0 mm
14:19 19.8 °C 11.6 °C 1011.7 hPa SSW 25.7 km/h 38.6 km/h 59% 0 mm
14:29 19.5 °C 11.3 °C 1012.1 hPa SSW 24.1 km/h 48.3 km/h 59% 0 mm
14:39 19.2 °C 11.3 °C 1011.7 hPa SSW 20.9 km/h 45.1 km/h 60% 0 mm
14:49 19.4 °C 11.2 °C 1011.4 hPa SSW 27.4 km/h 40.2 km/h 59% 0 mm
14:59 19.3 °C 11.4 °C 1011.4 hPa SSW 22.5 km/h 48.3 km/h 60% 0 mm
15:09 19.1 °C 11.4 °C 1011.4 hPa SSW 14.5 km/h 38.6 km/h 61% 0 mm
15:19 18.9 °C 11.3 °C 1011.1 hPa SSW 32.2 km/h 49.9 km/h 61% 0 mm
15:29 18.9 °C 11.5 °C 1011.1 hPa SSW 22.5 km/h 43.5 km/h 62% 0 mm
15:39 18.9 °C 11.5 °C 1011.1 hPa SSW 32.2 km/h 46.7 km/h 62% 0 mm
15:49 18.9 °C 11.5 °C 1011.1 hPa SSW 25.7 km/h 41.8 km/h 62% 0 mm
15:59 18.9 °C 11.4 °C 1011.4 hPa South 16.1 km/h 40.2 km/h 62% 0 mm
16:09 18.7 °C 11.5 °C 1011.4 hPa SSW 19.3 km/h 43.5 km/h 63% 0 mm
16:19 18.5 °C 11.3 °C 1011.4 hPa SSW 25.7 km/h 46.7 km/h 63% 0 mm
16:29 18.4 °C 11.3 °C 1011.4 hPa SSW 22.5 km/h 40.2 km/h 63% 0 mm
16:39 18.3 °C 11.3 °C 1011.4 hPa SSW 14.5 km/h 38.6 km/h 64% 0 mm
16:49 18.1 °C 11.2 °C 1011.4 hPa SSW 16.1 km/h 33.8 km/h 64% 0 mm
16:59 17.9 °C 11.3 °C 1011.1 hPa SSW 20.9 km/h 33.8 km/h 65% 0 mm
17:09 17.9 °C 11.3 °C 1011.1 hPa SSW 11.3 km/h 37 km/h 65% 0 mm
17:19 18 °C 11.1 °C 1011.7 hPa SSW 25.7 km/h 56.3 km/h 64% 0 mm
17:29 17.9 °C 11.3 °C 1011.4 hPa SSW 14.5 km/h 35.4 km/h 65% 0 mm
17:39 17.8 °C 10.9 °C 1011.7 hPa South 19.3 km/h 46.7 km/h 64% 0 mm
17:49 17.8 °C 11.2 °C 1011.7 hPa South 19.3 km/h 35.4 km/h 65% 0 mm
17:59 17.9 °C 11.3 °C 1011.7 hPa SSW 14.5 km/h 38.6 km/h 65% 0 mm
18:09 17.9 °C 11.3 °C 1011.4 hPa SSW 11.3 km/h 43.5 km/h 65% 0 mm
18:19 17.9 °C 11.2 °C 1011.4 hPa SSW 22.5 km/h 40.2 km/h 65% 0 mm
18:29 17.9 °C 11.3 °C 1011.7 hPa SSW 16.1 km/h 43.5 km/h 65% 0 mm
18:39 17.9 °C 11.2 °C 1011.4 hPa SSW 16.1 km/h 33.8 km/h 65% 0 mm
18:49 17.9 °C 11.2 °C 1011.7 hPa SSW 19.3 km/h 37 km/h 65% 0 mm
18:59 17.8 °C 11.4 °C 1011.4 hPa SSW 16.1 km/h 32.2 km/h 66% 0 mm
19:09 17.8 °C 11.3 °C 1011.4 hPa SSW 19.3 km/h 37 km/h 66% 0 mm
19:19 17.8 °C 11.6 °C 1011.4 hPa SSW 20.9 km/h 45.1 km/h 67% 0 mm
19:29 17.8 °C 11.6 °C 1011.4 hPa SSW 22.5 km/h 38.6 km/h 67% 0 mm
19:39 17.8 °C 11.6 °C 1011.4 hPa South 16.1 km/h 33.8 km/h 67% 0 mm
19:49 17.7 °C 11.7 °C 1011.4 hPa SSW 14.5 km/h 35.4 km/h 68% 0 mm
19:59 17.7 °C 11.7 °C 1011.4 hPa SSW 16.1 km/h 40.2 km/h 68% 0 mm
20:09 17.7 °C 11.7 °C 1011.4 hPa SSW 14.5 km/h 38.6 km/h 68% 0 mm
20:19 17.6 °C 11.6 °C 1011.4 hPa South 14.5 km/h 32.2 km/h 68% 0 mm
20:29 17.6 °C 11.6 °C 1011.1 hPa SSW 19.3 km/h 35.4 km/h 68% 0 mm
20:39 17.5 °C 11.5 °C 1011.1 hPa SSW 16.1 km/h 32.2 km/h 68% 0 mm
20:49 17.4 °C 11.5 °C 1011.1 hPa SSW 19.3 km/h 33.8 km/h 68% 0 mm
20:59 17.4 °C 11.6 °C 1011.1 hPa SSW 12.9 km/h 27.4 km/h 69% 0 mm
21:09 17.3 °C 11.6 °C 1010.7 hPa South 14.5 km/h 29 km/h 69% 0 mm
21:19 17.3 °C 11.5 °C 1010.7 hPa SSW 22.5 km/h 35.4 km/h 69% 0 mm
21:29 17.2 °C 11.4 °C 1010.7 hPa SSW 12.9 km/h 33.8 km/h 69% 0 mm
21:39 17.2 °C 11.6 °C 1010.4 hPa SSW 19.3 km/h 33.8 km/h 70% 0 mm
21:49 17.2 °C 11.7 °C 1010.4 hPa SSW 14.5 km/h 38.6 km/h 70% 0 mm
21:59 17.1 °C 12 °C 1010 hPa SSW 16.1 km/h 35.4 km/h 72% 0 mm
22:09 16.9 °C 11.7 °C 1010 hPa SSW 16.1 km/h 32.2 km/h 71% 0 mm
22:19 16.9 °C 11.7 °C 1009.7 hPa SSW 14.5 km/h 27.4 km/h 71% 0 mm
22:29 16.7 °C 12.1 °C 1009.7 hPa SSW 19.3 km/h 32.2 km/h 74% 0 mm
22:39 16.5 °C 12.1 °C 1009.4 hPa South 11.3 km/h 29 km/h 75% 0 mm
22:49 16.3 °C 12.4 °C 1009.4 hPa SSW 16.1 km/h 37 km/h 78% 0 mm
22:59 16.1 °C 12.2 °C 1009.4 hPa SSW 14.5 km/h 35.4 km/h 78% 0 mm
23:09 16.3 °C 12.3 °C 1009.4 hPa SSW 14.5 km/h 32.2 km/h 77% 0 mm
23:19 16.4 °C 12.2 °C 1009.4 hPa SSW 14.5 km/h 35.4 km/h 76% 0 mm
23:29 16.4 °C 12.4 °C 1009.7 hPa SSW 22.5 km/h 38.6 km/h 77% 0 mm
23:39 16.1 °C 12.7 °C 1009.4 hPa SSW 14.5 km/h 41.8 km/h 80% 0 mm
23:49 16.1 °C 12.8 °C 1009.4 hPa SSW 20.9 km/h 38.6 km/h 81% 0 mm
23:59 16.1 °C 12.8 °C 1009.4 hPa SSW 16.1 km/h 38.6 km/h 81% 0 mm
jolietwx - Weather
Compliments of Weather Underground